Torna al catalogo

NOAA 12 DEB

AttivoSSO
NORAD 38547·DEBRIS·🇺🇸 United States

Lanciato May 14, 1991 da Vandenberg Space Force Base

Loading…

Prossimi Passaggi (prossime 24 ore)

TLE

In scadenzaSource: Space-Track

Epoca: Sep 10, 2026, 05:17 UTC

1 38547U 91032G   26253.22015393  .00000168  00000-0  80161-4 0  9990
2 38547  98.5325 237.2592 0006140  94.0071 266.1814 14.30977047775372

Traccia NOAA 12 DEB in tempo reale con AllMySat

Download on the App Store